Time,TemperatureF,DewpointF,PressureIn,WindDirection,WindDirectionDegrees,WindSpeedMPH,WindSpeedGustMPH,Humidity,HourlyPrecipIn,Conditions,Clouds,dailyrainin,SolarRadiationWatts/m^2,SoftwareType,DateUTC
2013-08-26 00:00:00,72.7,64.7,30.12,SW,236,0.0,0.0,76,0.00,CLR,SCT,0.00,0.0,WeatherDisplay:10.37,2013-08-26 04:00:00,
2013-08-26 00:01:00,72.7,64.7,30.12,SW,236,0.0,0.0,76,0.00,CLR,SCT,0.00,0.0,WeatherDisplay:10.37,2013-08-26 04:01:00,
2013-08-26 00:02:00,72.7,64.7,30.12,SW,236,0.0,0.0,76,0.00,CLR,SCT,0.00,0.0,WeatherDisplay:10.37,2013-08-26 04:02:00,
2013-08-26 00:03:00,72.6,64.6,30.12,SW,236,0.0,0.0,76,0.00,CLR,SCT,0.00,0.0,WeatherDisplay:10.37,2013-08-26 04:03:00,
2013-08-26 00:04:00,72.6,64.6,30.12,SW,236,0.0,0.0,76,0.00,CLR,SCT,0.00,0.0,WeatherDisplay:10.37,2013-08-26 04:04:00,
2013-08-26 00:09:00,72.5,64.5,30.12,WSW,242,0.1,1.2,76,0.00,CLR,SCT,0.00,0.0,WeatherDisplay:10.37,2013-08-26 04:09:00,
2013-08-26 00:14:00,72.4,64.4,30.12,West,264,0.0,0.0,76,0.00,CLR,SCT,0.00,0.0,WeatherDisplay:10.37,2013-08-26 04:14:00,
2013-08-26 00:19:00,72.4,64.4,30.12,West,264,0.0,0.0,76,0.00,CLR,SCT,0.00,0.0,WeatherDisplay:10.37,2013-08-26 04:19:00,
2013-08-26 00:24:00,72.3,64.3,30.12,West,264,0.0,0.0,76,0.00,CLR,SCT,0.00,0.0,WeatherDisplay:10.37,2013-08-26 04:24:00,
2013-08-26 00:29:00,72.2,64.2,30.12,WNW,289,0.0,0.0,76,0.00,CLR,SCT,0.00,0.0,WeatherDisplay:10.37,2013-08-26 04:29:00,
2013-08-26 00:34:00,72.2,64.2,30.12,WNW,296,0.0,0.0,76,0.00,CLR,SCT,0.00,0.0,WeatherDisplay:10.37,2013-08-26 04:34:00,
2013-08-26 00:39:00,72.3,64.3,30.11,WNW,292,0.0,1.0,76,0.00,CLR,SCT,0.00,0.0,WeatherDisplay:10.37,2013-08-26 04:39:00,
2013-08-26 00:44:00,72.3,64.3,30.11,WNW,292,0.1,1.0,76,0.00,CLR,SCT,0.00,0.0,WeatherDisplay:10.37,2013-08-26 04:44:00,
2013-08-26 00:49:00,72.3,64.3,30.11,West,275,0.1,1.0,76,0.00,CLR,SCT,0.00,0.0,WeatherDisplay:10.37,2013-08-26 04:49:00,
2013-08-26 00:54:00,72.3,64.3,30.11,West,275,0.0,0.0,76,0.00,CLR,SCT,0.00,0.0,WeatherDisplay:10.37,2013-08-26 04:54:00,
2013-08-26 00:59:00,72.2,64.2,30.11,West,275,0.1,1.0,76,0.00,CLR,SCT,0.00,0.0,WeatherDisplay:10.37,2013-08-26 04:59:00,
2013-08-26 01:04:00,72.2,64.2,30.11,WSW,258,0.2,0.0,76,0.00,FEW,SCT,0.00,0.0,WeatherDisplay:10.37,2013-08-26 05:04:00,
2013-08-26 01:09:00,72.3,64.3,30.11,West,269,0.3,1.2,76,0.00,FEW,SCT,0.00,0.0,WeatherDisplay:10.37,2013-08-26 05:09:00,
2013-08-26 01:14:00,72.3,64.3,30.11,West,275,0.0,0.0,76,0.00,FEW,SCT,0.00,0.0,WeatherDisplay:10.37,2013-08-26 05:14:00,
2013-08-26 01:19:00,72.2,64.2,30.11,West,276,0.0,1.2,76,0.00,FEW,SCT,0.00,0.0,WeatherDisplay:10.37,2013-08-26 05:19:00,
2013-08-26 01:24:00,72.2,64.2,30.11,NW,316,0.1,1.0,76,0.00,FEW,SCT,0.00,0.0,WeatherDisplay:10.37,2013-08-26 05:24:00,
2013-08-26 01:29:00,72.1,64.1,30.11,WSW,249,0.2,1.2,76,0.00,FEW,SCT,0.00,0.0,WeatherDisplay:10.37,2013-08-26 05:29:00,
2013-08-26 01:34:00,72.1,64.1,30.11,West,272,0.0,0.0,76,0.00,FEW,SCT,0.00,0.0,WeatherDisplay:10.37,2013-08-26 05:34:00,
2013-08-26 01:39:00,72.0,64.0,30.10,West,272,0.0,0.0,76,0.00,FEW,SCT,0.00,0.0,WeatherDisplay:10.37,2013-08-26 05:39:00,
2013-08-26 01:44:00,71.9,64.3,30.10,West,273,0.0,0.0,77,0.00,FEW,SCT,0.00,0.0,WeatherDisplay:10.37,2013-08-26 05:44:00,
2013-08-26 01:49:00,71.8,64.2,30.10,West,273,0.0,0.0,77,0.00,FEW,SCT,0.00,0.0,WeatherDisplay:10.37,2013-08-26 05:49:00,
2013-08-26 01:54:00,71.7,64.1,30.10,WNW,283,0.1,1.0,77,0.00,FEW,SCT,0.00,0.0,WeatherDisplay:10.37,2013-08-26 05:54:00,
2013-08-26 01:59:00,71.7,63.7,30.09,WNW,295,0.0,0.0,76,0.00,FEW,SCT,0.00,0.0,WeatherDisplay:10.37,2013-08-26 05:59:00,
2013-08-26 02:04:00,71.6,64.0,30.09,WNW,282,0.3,1.2,77,0.00,FEW,SCT,0.00,0.0,WeatherDisplay:10.37,2013-08-26 06:04:00,
2013-08-26 02:09:00,71.5,63.9,30.09,WNW,282,0.0,0.0,77,0.00,FEW,SCT,0.00,0.0,WeatherDisplay:10.37,2013-08-26 06:09:00,
2013-08-26 02:14:00,71.3,63.7,30.08,WNW,282,0.0,0.0,77,0.00,FEW,SCT,0.00,0.0,WeatherDisplay:10.37,2013-08-26 06:14:00,
2013-08-26 02:20:00,71.2,63.6,30.08,WNW,282,0.0,0.0,77,0.00,FEW,SCT,0.00,0.0,WeatherDisplay:10.37,2013-08-26 06:20:00,
2013-08-26 02:25:00,71.0,63.8,30.08,WNW,282,0.1,1.2,78,0.00,FEW,SCT,0.00,0.0,WeatherDisplay:10.37,2013-08-26 06:25:00,
2013-08-26 02:30:00,70.9,63.3,30.08,West,266,0.2,1.2,77,0.00,FEW,SCT,0.00,0.0,WeatherDisplay:10.37,2013-08-26 06:30:00,
2013-08-26 02:35:00,70.9,63.7,30.08,West,260,0.0,1.2,78,0.00,FEW,SCT,0.00,0.0,WeatherDisplay:10.37,2013-08-26 06:35:00,
2013-08-26 02:40:00,70.9,63.7,30.08,SW,219,0.4,2.3,78,0.00,FEW,SCT,0.00,0.0,WeatherDisplay:10.37,2013-08-26 06:40:00,
2013-08-26 02:45:00,70.8,63.6,30.08,South,184,0.0,0.0,78,0.00,FEW,SCT,0.00,0.0,WeatherDisplay:10.37,2013-08-26 06:45:00,
2013-08-26 02:50:00,70.7,63.5,30.08,SW,219,0.0,1.2,78,0.00,FEW,SCT,0.00,0.0,WeatherDisplay:10.37,2013-08-26 06:50:00,
2013-08-26 02:55:00,70.7,63.5,30.07,SSW,206,0.0,0.0,78,0.00,FEW,SCT,0.00,0.0,WeatherDisplay:10.37,2013-08-26 06:55:00,
2013-08-26 03:00:00,70.6,63.4,30.07,West,268,0.0,0.0,78,0.00,FEW,SCT,0.00,0.0,WeatherDisplay:10.37,2013-08-26 07:00:00,
2013-08-26 03:05:00,70.5,63.3,30.07,West,268,0.0,0.0,78,0.00,FEW,SCT,0.00,0.0,WeatherDisplay:10.37,2013-08-26 07:05:00,
2013-08-26 03:10:00,70.3,63.1,30.07,West,268,0.1,1.2,78,0.00,FEW,SCT,0.00,0.0,WeatherDisplay:10.37,2013-08-26 07:10:00,
2013-08-26 03:15:00,70.3,63.5,30.07,West,268,0.0,0.0,79,0.00,FEW,SCT,0.00,0.0,WeatherDisplay:10.37,2013-08-26 07:15:00,
2013-08-26 03:20:00,70.2,63.0,30.07,West,274,0.0,1.2,78,0.00,FEW,SCT,0.00,0.0,WeatherDisplay:10.37,2013-08-26 07:20:00,
2013-08-26 03:25:00,70.3,63.1,30.07,SSW,202,0.0,0.0,78,0.00,FEW,SCT,0.00,0.0,WeatherDisplay:10.37,2013-08-26 07:25:00,
2013-08-26 03:30:00,70.2,63.4,30.07,SW,234,0.0,0.0,79,0.00,FEW,SCT,0.00,0.0,WeatherDisplay:10.37,2013-08-26 07:30:00,
2013-08-26 03:35:00,70.2,63.0,30.08,NW,307,0.0,0.0,78,0.00,FEW,SCT,0.00,0.0,WeatherDisplay:10.37,2013-08-26 07:35:00,
2013-08-26 03:40:00,70.2,63.4,30.08,NW,307,0.0,0.0,79,0.00,FEW,SCT,0.00,0.0,WeatherDisplay:10.37,2013-08-26 07:40:00,
2013-08-26 03:45:00,70.1,63.3,30.08,NW,307,0.0,0.0,79,0.00,FEW,SCT,0.00,0.0,WeatherDisplay:10.37,2013-08-26 07:45:00,
2013-08-26 03:50:00,70.0,63.2,30.08,NW,307,0.0,0.0,79,0.00,FEW,SCT,0.00,0.0,WeatherDisplay:10.37,2013-08-26 07:50:00,
2013-08-26 03:55:00,69.9,63.1,30.08,West,271,0.0,1.2,79,0.00,FEW,SCT,0.00,0.0,WeatherDisplay:10.37,2013-08-26 07:55:00,
2013-08-26 04:00:00,69.9,63.1,30.08,West,271,0.0,0.0,79,0.00,FEW,SCT,0.00,0.0,WeatherDisplay:10.37,2013-08-26 08:00:00,
2013-08-26 04:05:00,69.8,63.0,30.08,West,271,0.0,0.0,79,0.00,SCT,,0.00,0.0,WeatherDisplay:10.37,2013-08-26 08:05:00,
2013-08-26 04:10:00,69.7,63.3,30.08,West,271,0.0,0.0,80,0.00,SCT,,0.00,0.0,WeatherDisplay:10.37,2013-08-26 08:10:00,
2013-08-26 04:15:00,69.5,63.1,30.08,West,266,0.1,1.2,80,0.00,SCT,,0.00,0.0,WeatherDisplay:10.37,2013-08-26 08:15:00,
2013-08-26 04:20:00,69.4,63.0,30.08,West,266,0.0,0.0,80,0.00,SCT,,0.00,0.0,WeatherDisplay:10.37,2013-08-26 08:20:00,
2013-08-26 04:25:00,69.4,63.3,30.08,West,266,0.0,0.0,81,0.00,SCT,,0.00,0.0,WeatherDisplay:10.37,2013-08-26 08:25:00,
2013-08-26 04:30:00,69.2,63.1,30.08,West,266,0.0,0.0,81,0.00,SCT,,0.00,0.0,WeatherDisplay:10.37,2013-08-26 08:30:00,
2013-08-26 04:35:00,69.1,63.0,30.08,West,269,0.0,1.2,81,0.00,SCT,,0.00,0.0,WeatherDisplay:10.37,2013-08-26 08:35:00,
2013-08-26 04:40:00,69.0,62.9,30.08,West,269,0.0,0.0,81,0.00,SCT,,0.00,0.0,WeatherDisplay:10.37,2013-08-26 08:40:00,
2013-08-26 04:45:00,68.9,63.2,30.09,West,266,0.0,1.2,82,0.00,SCT,,0.00,0.0,WeatherDisplay:10.37,2013-08-26 08:45:00,
2013-08-26 04:50:00,68.7,63.0,30.09,West,266,0.0,0.0,82,0.00,SCT,,0.00,0.0,WeatherDisplay:10.37,2013-08-26 08:50:00,
2013-08-26 04:55:00,68.6,62.9,30.08,West,266,0.0,0.0,82,0.00,SCT,,0.00,0.0,WeatherDisplay:10.37,2013-08-26 08:55:00,
2013-08-26 05:00:00,68.5,62.8,30.08,West,266,0.0,0.0,82,0.00,SCT,,0.00,0.0,WeatherDisplay:10.37,2013-08-26 09:00:00,
2013-08-26 05:05:00,68.3,62.9,30.08,West,266,0.0,0.0,83,0.00,FEW,SCT,0.00,0.0,WeatherDisplay:10.37,2013-08-26 09:05:00,
2013-08-26 05:10:00,68.1,62.7,30.08,West,266,0.0,0.0,83,0.00,FEW,SCT,0.00,0.0,WeatherDisplay:10.37,2013-08-26 09:10:00,
2013-08-26 05:15:00,68.0,62.6,30.08,West,267,0.0,0.0,83,0.00,FEW,SCT,0.00,0.0,WeatherDisplay:10.37,2013-08-26 09:15:00,
2013-08-26 05:20:00,67.8,62.8,30.08,West,266,0.0,0.0,84,0.00,FEW,SCT,0.00,0.0,WeatherDisplay:10.37,2013-08-26 09:20:00,
2013-08-26 05:25:00,67.6,62.6,30.08,West,267,0.0,0.0,84,0.00,FEW,SCT,0.00,0.0,WeatherDisplay:10.37,2013-08-26 09:25:00,
2013-08-26 05:30:00,67.4,62.7,30.08,West,267,0.0,0.0,85,0.00,FEW,SCT,0.00,0.0,WeatherDisplay:10.37,2013-08-26 09:30:00,
2013-08-26 05:35:00,67.2,62.5,30.08,West,267,0.0,0.0,85,0.00,FEW,SCT,0.00,0.0,WeatherDisplay:10.37,2013-08-26 09:35:00,
2013-08-26 05:40:00,67.1,62.4,30.08,West,267,0.0,0.0,85,0.00,FEW,SCT,0.00,0.0,WeatherDisplay:10.37,2013-08-26 09:40:00,
2013-08-26 05:45:00,67.0,62.3,30.08,West,267,0.0,1.2,85,0.00,FEW,SCT,0.00,0.0,WeatherDisplay:10.37,2013-08-26 09:45:00,
2013-08-26 05:50:00,66.9,62.6,30.08,West,267,0.0,0.0,86,0.00,FEW,SCT,0.00,0.0,WeatherDisplay:10.37,2013-08-26 09:50:00,
2013-08-26 05:55:00,66.8,62.5,30.08,West,267,0.0,0.0,86,0.00,FEW,SCT,0.00,0.0,WeatherDisplay:10.37,2013-08-26 09:55:00,
2013-08-26 06:00:00,66.6,62.3,30.08,West,267,0.0,0.0,86,0.00,FEW,SCT,0.00,0.0,WeatherDisplay:10.37,2013-08-26 10:00:00,
2013-08-26 06:05:00,66.5,62.5,30.08,West,267,0.0,1.2,87,0.00,FEW,SCT,0.00,0.0,WeatherDisplay:10.37,2013-08-26 10:05:00,
2013-08-26 06:10:00,66.4,62.4,30.08,West,267,0.0,0.0,87,0.00,FEW,SCT,0.00,0.0,WeatherDisplay:10.37,2013-08-26 10:10:00,
2013-08-26 06:15:00,66.3,62.3,30.08,West,267,0.0,0.0,87,0.00,FEW,SCT,0.00,0.0,WeatherDisplay:10.37,2013-08-26 10:15:00,
2013-08-26 06:20:00,66.1,62.1,30.08,West,267,0.0,0.0,87,0.00,FEW,SCT,0.00,0.0,WeatherDisplay:10.37,2013-08-26 10:20:00,
2013-08-26 06:25:00,66.0,62.3,30.09,WSW,237,0.1,1.2,88,0.00,FEW,SCT,0.00,0.0,WeatherDisplay:10.37,2013-08-26 10:25:00,
2013-08-26 06:30:00,66.0,62.3,30.09,WSW,237,0.0,0.0,88,0.00,FEW,SCT,0.00,0.0,WeatherDisplay:10.37,2013-08-26 10:30:00,
2013-08-26 06:35:00,65.9,62.2,30.09,WSW,237,0.0,0.0,88,0.00,FEW,SCT,0.00,0.0,WeatherDisplay:10.37,2013-08-26 10:35:00,
2013-08-26 06:40:00,65.8,62.1,30.09,WSW,237,0.0,0.0,88,0.00,FEW,SCT,0.00,0.0,WeatherDisplay:10.37,2013-08-26 10:40:00,
2013-08-26 06:45:00,65.7,62.0,30.09,WSW,237,0.0,0.0,88,0.00,FEW,SCT,0.00,0.0,WeatherDisplay:10.37,2013-08-26 10:45:00,
2013-08-26 06:50:00,65.6,61.9,30.09,WSW,241,0.0,0.0,88,0.00,FEW,SCT,0.00,0.0,WeatherDisplay:10.37,2013-08-26 10:50:00,
2013-08-26 06:55:00,65.6,61.9,30.10,WSW,256,0.0,1.2,88,0.00,FEW,SCT,0.00,0.0,WeatherDisplay:10.37,2013-08-26 10:55:00,
2013-08-26 07:00:00,65.4,62.1,30.10,WSW,256,0.0,0.0,89,0.00,FEW,SCT,0.00,0.0,WeatherDisplay:10.37,2013-08-26 11:00:00,
2013-08-26 07:05:00,65.4,62.1,30.10,WSW,256,0.0,0.0,89,0.00,SCT,,0.00,0.0,WeatherDisplay:10.37,2013-08-26 11:05:00,
2013-08-26 07:10:00,65.2,61.9,30.10,WSW,256,0.0,0.0,89,0.00,SCT,,0.00,0.0,WeatherDisplay:10.37,2013-08-26 11:10:00,
2013-08-26 07:15:00,65.1,61.8,30.10,WSW,256,0.0,0.0,89,0.00,SCT,,0.00,5.0,WeatherDisplay:10.37,2013-08-26 11:15:00,
2013-08-26 07:20:00,65.0,61.7,30.10,WSW,256,0.0,0.0,89,0.00,SCT,,0.00,7.0,WeatherDisplay:10.37,2013-08-26 11:20:00,
2013-08-26 07:25:00,64.9,61.9,30.10,WSW,256,0.0,0.0,90,0.00,SCT,,0.00,11.0,WeatherDisplay:10.37,2013-08-26 11:25:00,
2013-08-26 07:30:00,64.8,61.8,30.10,WSW,256,0.0,0.0,90,0.00,SCT,,0.00,14.0,WeatherDisplay:10.37,2013-08-26 11:30:00,
2013-08-26 07:35:00,64.9,61.9,30.10,WSW,256,0.0,0.0,90,0.00,SCT,,0.00,18.0,WeatherDisplay:10.37,2013-08-26 11:35:00,
2013-08-26 07:40:00,64.9,61.9,30.10,WSW,256,0.0,0.0,90,0.00,SCT,,0.00,19.0,WeatherDisplay:10.37,2013-08-26 11:40:00,
2013-08-26 07:45:00,65.0,62.0,30.10,WNW,285,0.0,1.2,90,0.00,SCT,,0.00,21.0,WeatherDisplay:10.37,2013-08-26 11:45:00,
2013-08-26 07:50:00,65.2,62.2,30.10,WNW,285,0.0,1.2,90,0.00,SCT,,0.00,23.0,WeatherDisplay:10.37,2013-08-26 11:50:00,
2013-08-26 07:55:00,65.4,62.4,30.11,WNW,285,0.1,1.2,90,0.00,SCT,,0.00,26.0,WeatherDisplay:10.37,2013-08-26 11:55:00,
2013-08-26 08:00:00,65.8,62.5,30.10,WNW,284,0.1,1.2,89,0.00,SCT,,0.00,30.0,WeatherDisplay:10.37,2013-08-26 12:00:00,
2013-08-26 08:05:00,66.0,62.7,30.10,WNW,284,0.0,1.0,89,0.00,SCT,,0.00,33.0,WeatherDisplay:10.37,2013-08-26 12:05:00,
2013-08-26 08:10:00,66.3,63.0,30.10,WNW,284,0.0,0.0,89,0.00,SCT,,0.00,35.0,WeatherDisplay:10.37,2013-08-26 12:10:00,
2013-08-26 08:15:00,66.5,62.8,30.10,West,261,0.1,1.0,88,0.00,SCT,,0.00,35.0,WeatherDisplay:10.37,2013-08-26 12:15:00,
2013-08-26 08:20:00,66.7,63.0,30.09,West,261,0.0,0.0,88,0.00,SCT,,0.00,39.0,WeatherDisplay:10.37,2013-08-26 12:20:00,
2013-08-26 08:25:00,66.9,63.2,30.09,West,261,0.0,0.0,88,0.00,SCT,,0.00,42.0,WeatherDisplay:10.37,2013-08-26 12:25:00,
2013-08-26 08:30:00,67.1,63.4,30.09,West,261,0.0,0.0,88,0.00,SCT,,0.00,42.0,WeatherDisplay:10.37,2013-08-26 12:30:00,
2013-08-26 08:35:00,67.4,63.4,30.09,West,261,0.0,0.0,87,0.00,SCT,,0.00,44.0,WeatherDisplay:10.37,2013-08-26 12:35:00,
2013-08-26 08:40:00,67.6,63.6,30.09,West,261,0.0,1.0,87,0.00,SCT,SCT,0.00,46.0,WeatherDisplay:10.37,2013-08-26 12:40:00,
2013-08-26 08:45:00,68.0,63.7,30.08,West,273,0.2,1.2,86,0.00,SCT,,0.00,46.0,WeatherDisplay:10.37,2013-08-26 12:45:00,
2013-08-26 08:50:00,68.4,63.7,30.08,West,271,0.1,1.2,85,0.00,SCT,,0.00,44.0,WeatherDisplay:10.37,2013-08-26 12:50:00,
2013-08-26 08:55:00,68.9,63.9,30.08,West,277,0.1,1.2,84,0.00,SCT,,0.00,46.0,WeatherDisplay:10.37,2013-08-26 12:55:00,
2013-08-26 09:00:00,69.3,63.9,30.08,WNW,287,0.6,3.5,83,0.00,SCT,,0.00,44.0,WeatherDisplay:10.37,2013-08-26 13:00:00,
2013-08-26 09:05:00,69.8,64.1,30.07,West,267,0.1,3.5,82,0.00,BKN,SCT,0.00,49.0,WeatherDisplay:10.37,2013-08-26 13:05:00,
2013-08-26 09:10:00,70.2,64.4,30.07,NW,318,0.0,1.2,82,0.00,BKN,SCT,0.00,53.0,WeatherDisplay:10.37,2013-08-26 13:10:00,
2013-08-26 09:15:00,70.7,64.6,30.07,NW,317,0.0,0.0,81,0.00,BKN,SCT,0.00,60.0,WeatherDisplay:10.37,2013-08-26 13:15:00,
2013-08-26 09:20:00,71.1,64.6,30.07,WNW,296,0.2,3.5,80,0.00,BKN,SCT,0.00,70.0,WeatherDisplay:10.37,2013-08-26 13:20:00,
2013-08-26 09:25:00,71.5,65.0,30.07,West,277,0.3,1.2,80,0.00,BKN,SCT,0.00,81.0,WeatherDisplay:10.37,2013-08-26 13:25:00,
2013-08-26 09:30:00,72.0,64.8,30.07,West,278,1.0,3.5,78,0.00,BKN,SCT,0.00,104.0,WeatherDisplay:10.37,2013-08-26 13:30:00,
2013-08-26 09:35:00,72.4,65.2,30.07,West,278,0.0,1.2,78,0.00,BKN,SCT,0.00,127.0,WeatherDisplay:10.37,2013-08-26 13:35:00,
2013-08-26 09:40:00,72.9,65.3,30.07,West,266,2.1,3.5,77,0.00,BKN,SCT,0.00,128.0,WeatherDisplay:10.37,2013-08-26 13:40:00,
2013-08-26 09:45:00,73.3,65.3,30.07,West,274,0.2,3.5,76,0.00,BKN,SCT,0.00,123.0,WeatherDisplay:10.37,2013-08-26 13:45:00,
2013-08-26 09:50:00,73.5,65.1,30.07,NW,309,0.5,2.3,75,0.00,BKN,SCT,0.00,125.0,WeatherDisplay:10.37,2013-08-26 13:50:00,
2013-08-26 09:55:00,73.7,65.3,30.08,NW,317,0.8,2.3,75,0.00,BKN,SCT,0.00,137.0,WeatherDisplay:10.37,2013-08-26 13:55:00,
2013-08-26 10:00:00,73.9,65.5,30.08,WSW,240,0.5,1.2,75,0.00,BKN,SCT,0.00,141.0,WeatherDisplay:10.37,2013-08-26 14:00:00,
2013-08-26 10:05:00,74.0,66.0,30.07,WNW,289,0.0,3.5,76,0.00,BKN,SCT,0.00,130.0,WeatherDisplay:10.37,2013-08-26 14:05:00,
2013-08-26 10:10:00,74.1,65.7,30.08,WNW,286,0.3,2.3,75,0.00,BKN,SCT,0.00,120.0,WeatherDisplay:10.37,2013-08-26 14:10:00,
2013-08-26 10:15:00,74.1,65.7,30.08,WNW,288,1.3,3.5,75,0.00,BKN,SCT,0.00,118.0,WeatherDisplay:10.37,2013-08-26 14:15:00,
2013-08-26 10:20:00,74.1,66.0,30.08,WNW,294,0.8,2.3,76,0.00,BKN,SCT,0.00,120.0,WeatherDisplay:10.37,2013-08-26 14:20:00,
2013-08-26 10:25:00,74.2,66.1,30.08,WNW,294,0.2,2.3,76,0.00,BKN,SCT,0.00,116.0,WeatherDisplay:10.37,2013-08-26 14:25:00,
2013-08-26 10:30:00,74.3,66.2,30.08,West,273,0.0,3.5,76,0.00,BKN,SCT,0.00,113.0,WeatherDisplay:10.37,2013-08-26 14:30:00,
2013-08-26 10:35:00,74.5,66.8,30.08,West,281,0.4,1.2,77,0.00,BKN,SCT,0.00,109.0,WeatherDisplay:10.37,2013-08-26 14:35:00,
2013-08-26 10:40:00,74.7,66.6,30.08,WNW,282,0.1,1.2,76,0.00,BKN,SCT,0.00,111.0,WeatherDisplay:10.37,2013-08-26 14:40:00,
2013-08-26 10:45:00,75.0,66.9,30.07,SW,236,0.1,3.5,76,0.00,BKN,SCT,0.00,125.0,WeatherDisplay:10.37,2013-08-26 14:45:00,
2013-08-26 10:50:00,75.4,67.7,30.07,WSW,250,0.0,1.2,77,0.00,BKN,SCT,0.00,134.0,WeatherDisplay:10.37,2013-08-26 14:50:00,
2013-08-26 10:55:00,76.0,67.9,30.07,West,259,0.3,3.0,76,0.00,BKN,SCT,0.00,179.0,WeatherDisplay:10.37,2013-08-26 14:55:00,
2013-08-26 11:00:00,76.6,68.1,30.06,NNW,345,0.2,2.3,75,0.00,BKN,SCT,0.00,225.0,WeatherDisplay:10.37,2013-08-26 15:00:00,
2013-08-26 11:05:00,77.4,68.9,30.06,WNW,284,1.2,3.5,75,0.00,BKN,SCT,0.00,399.0,WeatherDisplay:10.37,2013-08-26 15:05:00,
2013-08-26 11:10:00,78.2,68.8,30.06,West,260,0.2,2.3,73,0.00,BKN,SCT,0.00,378.0,WeatherDisplay:10.37,2013-08-26 15:10:00,
2013-08-26 11:15:00,78.7,68.9,30.06,West,280,0.0,1.2,72,0.00,BKN,SCT,0.00,360.0,WeatherDisplay:10.37,2013-08-26 15:15:00,
2013-08-26 11:20:00,79.2,68.6,30.06,WSW,245,0.2,3.5,70,0.00,BKN,SCT,0.00,330.0,WeatherDisplay:10.37,2013-08-26 15:20:00,
2013-08-26 11:25:00,79.5,68.0,30.06,WNW,298,0.9,3.5,68,0.00,BKN,SCT,0.00,295.0,WeatherDisplay:10.37,2013-08-26 15:25:00,
2013-08-26 11:30:00,79.7,67.3,30.06,WNW,300,0.7,2.3,66,0.00,BKN,SCT,0.00,297.0,WeatherDisplay:10.37,2013-08-26 15:30:00,
2013-08-26 11:35:00,79.8,67.9,30.05,WNW,286,0.1,1.2,67,0.00,BKN,SCT,0.00,383.0,WeatherDisplay:10.37,2013-08-26 15:35:00,
2013-08-26 11:40:00,80.2,69.1,30.05,WNW,288,0.1,1.2,69,0.00,BKN,SCT,0.00,397.0,WeatherDisplay:10.37,2013-08-26 15:40:00,
2013-08-26 11:45:00,80.4,67.6,30.05,West,281,1.8,4.6,65,0.00,BKN,SCT,0.00,246.0,WeatherDisplay:10.37,2013-08-26 15:45:00,
2013-08-26 11:50:00,80.6,69.1,30.05,West,263,0.1,1.2,68,0.00,BKN,SCT,0.00,478.0,WeatherDisplay:10.37,2013-08-26 15:50:00,
2013-08-26 11:55:00,80.8,67.9,30.05,NW,318,0.1,1.2,65,0.00,BKN,SCT,0.00,334.0,WeatherDisplay:10.37,2013-08-26 15:55:00,
2013-08-26 12:00:00,81.2,69.2,30.05,West,279,0.3,1.2,67,0.00,BKN,SCT,0.00,432.0,WeatherDisplay:10.37,2013-08-26 16:00:00,
2013-08-26 12:05:00,81.6,69.1,30.05,West,263,0.1,1.2,66,0.00,OVC,SCT,0.00,438.0,WeatherDisplay:10.37,2013-08-26 16:05:00,
2013-08-26 12:10:00,82.0,68.6,30.04,NW,323,0.7,3.5,64,0.00,OVC,SCT,0.00,318.0,WeatherDisplay:10.37,2013-08-26 16:10:00,
2013-08-26 12:15:00,82.0,68.2,30.05,West,275,0.9,2.3,63,0.00,OVC,SCT,0.00,366.0,WeatherDisplay:10.37,2013-08-26 16:15:00,
2013-08-26 12:20:00,81.9,69.4,30.04,NW,319,0.1,2.3,66,0.00,OVC,SCT,0.00,322.0,WeatherDisplay:10.37,2013-08-26 16:20:00,
2013-08-26 12:25:00,82.0,69.5,30.04,West,270,0.3,1.2,66,0.00,OVC,SCT,0.00,315.0,WeatherDisplay:10.37,2013-08-26 16:25:00,
2013-08-26 12:30:00,82.2,69.7,30.05,West,273,0.0,1.2,66,0.00,OVC,SCT,0.00,309.0,WeatherDisplay:10.37,2013-08-26 16:30:00,
2013-08-26 12:35:00,82.4,69.9,30.05,WNW,291,0.5,2.3,66,0.00,OVC,SCT,0.00,301.0,WeatherDisplay:10.37,2013-08-26 16:35:00,
2013-08-26 12:40:00,82.3,68.4,30.05,West,269,0.9,2.3,63,0.00,OVC,SCT,0.00,338.0,WeatherDisplay:10.37,2013-08-26 16:40:00,
2013-08-26 12:45:00,82.5,69.1,30.04,WNW,294,0.3,3.5,64,0.00,OVC,SCT,0.00,413.0,WeatherDisplay:10.37,2013-08-26 16:45:00,
2013-08-26 12:50:00,82.7,68.8,30.03,NW,320,0.0,1.2,63,0.00,OVC,SCT,0.00,459.0,WeatherDisplay:10.37,2013-08-26 16:50:00,
2013-08-26 12:55:00,83.1,68.7,30.03,ESE,116,0.0,2.3,62,0.00,OVC,SCT,0.00,399.0,WeatherDisplay:10.37,2013-08-26 16:55:00,
2013-08-26 13:00:00,83.4,69.0,30.03,WNW,284,0.6,1.2,62,0.00,OVC,SCT,0.00,508.0,WeatherDisplay:10.37,2013-08-26 17:00:00,
2013-08-26 13:05:00,83.7,68.8,30.02,NW,304,0.3,2.3,61,0.00,OVC,SCT,0.00,434.0,WeatherDisplay:10.37,2013-08-26 17:05:00,
2013-08-26 13:10:00,83.5,68.6,30.03,West,263,1.7,4.6,61,0.00,OVC,SCT,0.00,496.0,WeatherDisplay:10.37,2013-08-26 17:10:00,
2013-08-26 13:15:00,83.4,69.0,30.02,West,264,0.5,3.5,62,0.00,OVC,SCT,0.00,339.0,WeatherDisplay:10.37,2013-08-26 17:15:00,
2013-08-26 13:20:00,83.5,69.1,30.02,WNW,290,0.5,1.2,62,0.00,OVC,SCT,0.00,399.0,WeatherDisplay:10.37,2013-08-26 17:20:00,
2013-08-26 13:25:00,84.1,69.2,30.02,WNW,284,1.1,3.5,61,0.00,OVC,SCT,0.00,751.0,WeatherDisplay:10.37,2013-08-26 17:25:00,
2013-08-26 13:30:00,84.8,69.4,30.01,WSW,243,1.2,3.5,60,0.00,OVC,SCT,0.00,854.0,WeatherDisplay:10.37,2013-08-26 17:30:00,
2013-08-26 13:35:00,85.4,69.4,30.01,NW,306,0.5,2.3,59,0.00,OVC,SCT,0.00,939.0,WeatherDisplay:10.37,2013-08-26 17:35:00,
2013-08-26 13:40:00,85.8,69.8,30.00,SSW,193,1.0,4.6,59,0.00,OVC,SCT,0.00,983.0,WeatherDisplay:10.37,2013-08-26 17:40:00,
2013-08-26 13:45:00,86.3,70.3,30.00,WNW,287,0.2,3.5,59,0.00,OVC,SCT,0.00,877.0,WeatherDisplay:10.37,2013-08-26 17:45:00,
2013-08-26 13:50:00,87.1,69.5,30.00,NW,311,1.8,3.5,56,0.00,OVC,SCT,0.00,981.0,WeatherDisplay:10.37,2013-08-26 17:50:00,
2013-08-26 13:55:00,86.6,69.6,29.99,WNW,298,0.4,2.3,57,0.00,OVC,SCT,0.00,427.0,WeatherDisplay:10.37,2013-08-26 17:55:00,
2013-08-26 14:00:00,86.0,69.0,29.99,NW,307,1.3,3.5,57,0.00,OVC,SCT,0.00,294.0,WeatherDisplay:10.37,2013-08-26 18:00:00,
2013-08-26 14:05:00,85.6,69.1,29.98,East,99,1.2,2.3,58,0.00,OVC,SCT,0.00,234.0,WeatherDisplay:10.37,2013-08-26 18:05:00,
2013-08-26 14:10:00,85.2,69.3,29.98,West,276,0.3,2.3,59,0.00,OVC,SCT,0.00,246.0,WeatherDisplay:10.37,2013-08-26 18:10:00,
2013-08-26 14:15:00,84.8,69.9,29.98,West,273,0.4,2.3,61,0.00,OVC,SCT,0.00,278.0,WeatherDisplay:10.37,2013-08-26 18:15:00,
2013-08-26 14:20:00,84.8,69.9,29.97,WSW,240,1.0,2.3,61,0.00,OVC,SCT,0.00,387.0,WeatherDisplay:10.37,2013-08-26 18:20:00,
2013-08-26 14:25:00,85.0,70.5,29.97,South,191,0.1,2.3,62,0.00,OVC,SCT,0.00,462.0,WeatherDisplay:10.37,2013-08-26 18:25:00,
2013-08-26 14:30:00,85.4,70.4,29.96,SSW,201,1.7,3.5,61,0.00,OVC,SCT,0.00,563.0,WeatherDisplay:10.37,2013-08-26 18:30:00,
2013-08-26 14:35:00,85.8,70.3,29.96,West,273,1.1,3.5,60,0.00,OVC,SCT,0.00,603.0,WeatherDisplay:10.37,2013-08-26 18:35:00,
2013-08-26 14:40:00,86.3,70.8,29.97,WSW,257,2.5,4.6,60,0.00,OVC,SCT,0.00,603.0,WeatherDisplay:10.37,2013-08-26 18:40:00,
2013-08-26 14:45:00,86.8,72.7,29.97,WNW,300,0.3,2.3,63,0.00,OVC,SCT,0.00,900.0,WeatherDisplay:10.37,2013-08-26 18:45:00,
2013-08-26 14:50:00,87.6,72.5,29.97,WSW,242,0.5,2.3,61,0.00,OVC,SCT,0.00,810.0,WeatherDisplay:10.37,2013-08-26 18:50:00,
2013-08-26 14:55:00,88.2,72.1,29.97,ESE,113,1.1,3.5,59,0.00,OVC,SCT,0.00,675.0,WeatherDisplay:10.37,2013-08-26 18:55:00,
2013-08-26 15:00:00,88.2,72.1,29.97,WSW,257,0.7,3.5,59,0.00,OVC,SCT,0.00,694.0,WeatherDisplay:10.37,2013-08-26 19:00:00,
2013-08-26 15:05:00,88.1,72.5,29.97,SSW,196,0.4,2.3,60,0.00,BKN,SCT,0.00,761.0,WeatherDisplay:10.37,2013-08-26 19:05:00,
2013-08-26 15:10:00,88.3,71.6,29.96,West,280,1.4,3.5,58,0.00,BKN,SCT,0.00,754.0,WeatherDisplay:10.37,2013-08-26 19:10:00,
2013-08-26 15:15:00,88.6,71.9,29.96,SW,229,1.0,3.5,58,0.00,BKN,SCT,0.00,684.0,WeatherDisplay:10.37,2013-08-26 19:15:00,
2013-08-26 15:20:00,89.2,73.0,29.96,West,277,0.0,1.2,59,0.00,BKN,SCT,0.00,807.0,WeatherDisplay:10.37,2013-08-26 19:20:00,
2013-08-26 15:25:00,89.3,72.6,29.96,WNW,287,0.6,3.5,58,0.00,BKN,SCT,0.00,754.0,WeatherDisplay:10.37,2013-08-26 19:25:00,
2013-08-26 15:30:00,89.0,72.8,29.96,WNW,295,0.3,2.3,59,0.00,BKN,SCT,0.00,599.0,WeatherDisplay:10.37,2013-08-26 19:30:00,
2013-08-26 15:35:00,88.9,72.7,29.95,WSW,248,0.0,1.2,59,0.00,BKN,SCT,0.00,715.0,WeatherDisplay:10.37,2013-08-26 19:35:00,
2013-08-26 15:40:00,88.8,71.6,29.94,WSW,242,0.6,2.3,57,0.00,BKN,SCT,0.00,253.0,WeatherDisplay:10.37,2013-08-26 19:40:00,
2013-08-26 15:45:00,88.7,73.0,29.94,SSW,208,0.5,3.5,60,0.00,BKN,SCT,0.00,503.0,WeatherDisplay:10.37,2013-08-26 19:45:00,
2013-08-26 15:50:00,88.5,72.3,29.94,ESE,106,0.7,3.5,59,0.00,BKN,SCT,0.00,211.0,WeatherDisplay:10.37,2013-08-26 19:50:00,
2013-08-26 15:55:00,87.9,72.3,29.94,NW,315,0.7,3.5,60,0.00,BKN,SCT,0.00,330.0,WeatherDisplay:10.37,2013-08-26 19:55:00,
2013-08-26 16:00:00,87.6,73.0,29.94,NW,304,0.8,3.5,62,0.00,BKN,SCT,0.00,432.0,WeatherDisplay:10.37,2013-08-26 20:00:00,
2013-08-26 16:05:00,87.6,72.5,29.93,South,186,0.0,3.5,61,0.00,BKN,SCT,0.00,239.0,WeatherDisplay:10.37,2013-08-26 20:05:00,
2013-08-26 16:10:00,87.5,72.4,29.93,SW,223,0.4,2.3,61,0.00,BKN,SCT,0.00,325.0,WeatherDisplay:10.37,2013-08-26 20:10:00,
2013-08-26 16:15:00,87.4,73.3,29.93,West,259,0.7,1.2,63,0.00,BKN,SCT,0.00,183.0,WeatherDisplay:10.37,2013-08-26 20:15:00,
2013-08-26 16:20:00,87.6,73.9,29.94,NW,321,1.0,3.5,64,0.00,BKN,SCT,0.00,445.0,WeatherDisplay:10.37,2013-08-26 20:20:00,
2013-08-26 16:25:00,88.0,73.3,29.94,NW,315,1.2,3.5,62,0.00,BKN,SCT,0.00,515.0,WeatherDisplay:10.37,2013-08-26 20:25:00,
2013-08-26 16:30:00,88.3,73.6,29.94,NW,308,1.5,3.5,62,0.00,BKN,SCT,0.00,350.0,WeatherDisplay:10.37,2013-08-26 20:30:00,
2013-08-26 16:35:00,88.1,72.5,29.94,WSW,237,1.1,4.0,60,0.00,BKN,SCT,0.00,199.0,WeatherDisplay:10.37,2013-08-26 20:35:00,
2013-08-26 16:40:00,87.5,72.4,29.94,West,267,0.6,3.5,61,0.00,BKN,SCT,0.00,171.0,WeatherDisplay:10.37,2013-08-26 20:40:00,
2013-08-26 16:45:00,87.1,72.5,29.94,WSW,251,0.1,1.2,62,0.00,BKN,SCT,0.00,148.0,WeatherDisplay:10.37,2013-08-26 20:45:00,
2013-08-26 16:50:00,86.8,73.2,29.94,WSW,255,0.0,2.0,64,0.00,BKN,SCT,0.00,125.0,WeatherDisplay:10.37,2013-08-26 20:50:00,
2013-08-26 16:55:00,86.4,73.2,29.93,WNW,290,0.0,2.3,65,0.00,BKN,SCT,0.00,118.0,WeatherDisplay:10.37,2013-08-26 20:55:00,
2013-08-26 17:00:00,86.2,73.0,29.93,NNE,23,0.3,2.3,65,0.00,BKN,SCT,0.00,151.0,WeatherDisplay:10.37,2013-08-26 21:00:00,
2013-08-26 17:05:00,86.3,73.6,29.93,WSW,255,0.0,1.2,66,0.00,OVC,SCT,0.00,320.0,WeatherDisplay:10.37,2013-08-26 21:05:00,
2013-08-26 17:10:00,86.4,73.2,29.93,WNW,284,0.2,2.3,65,0.00,OVC,SCT,0.00,176.0,WeatherDisplay:10.37,2013-08-26 21:10:00,
2013-08-26 17:15:00,86.4,73.2,29.94,WNW,294,0.0,2.3,65,0.00,OVC,SCT,0.00,160.0,WeatherDisplay:10.37,2013-08-26 21:15:00,
2013-08-26 17:20:00,86.3,73.6,29.93,WNW,295,0.3,1.2,66,0.00,OVC,SCT,0.00,130.0,WeatherDisplay:10.37,2013-08-26 21:20:00,
2013-08-26 17:25:00,86.3,73.6,29.93,NW,312,0.5,2.3,66,0.00,OVC,SCT,0.00,142.0,WeatherDisplay:10.37,2013-08-26 21:25:00,
2013-08-26 17:30:00,86.2,73.5,29.92,SW,233,0.0,0.0,66,0.00,OVC,SCT,0.00,199.0,WeatherDisplay:10.37,2013-08-26 21:30:00,
2013-08-26 17:35:00,86.2,73.0,29.93,West,275,0.5,3.5,65,0.00,OVC,SCT,0.00,174.0,WeatherDisplay:10.37,2013-08-26 21:35:00,
2013-08-26 17:40:00,86.0,73.3,29.93,West,267,0.2,1.2,66,0.00,OVC,SCT,0.00,97.0,WeatherDisplay:10.37,2013-08-26 21:40:00,
2013-08-26 17:45:00,85.8,73.6,29.93,West,269,0.0,0.0,67,0.00,OVC,SCT,0.00,204.0,WeatherDisplay:10.37,2013-08-26 21:45:00,
2013-08-26 17:50:00,85.8,73.6,29.93,West,275,0.0,1.2,67,0.00,OVC,SCT,0.00,227.0,WeatherDisplay:10.37,2013-08-26 21:50:00,
2013-08-26 17:55:00,86.0,73.3,29.93,WNW,284,0.8,3.5,66,0.00,OVC,SCT,0.00,225.0,WeatherDisplay:10.37,2013-08-26 21:55:00,
2013-08-26 18:00:00,86.3,73.1,29.93,WNW,295,0.1,3.5,65,0.00,OVC,SCT,0.00,239.0,WeatherDisplay:10.37,2013-08-26 22:00:00,
2013-08-26 18:05:00,86.5,73.3,29.93,West,270,1.0,4.0,65,0.00,OVC,SCT,0.00,255.0,WeatherDisplay:10.37,2013-08-26 22:05:00,
2013-08-26 18:10:00,86.6,73.0,29.93,West,263,0.1,2.3,64,0.00,OVC,SCT,0.00,199.0,WeatherDisplay:10.37,2013-08-26 22:10:00,
2013-08-26 18:15:00,86.6,73.4,29.93,WNW,294,0.4,2.3,65,0.00,OVC,SCT,0.00,192.0,WeatherDisplay:10.37,2013-08-26 22:15:00,
2013-08-26 18:20:00,86.5,73.3,29.93,WNW,294,0.4,2.3,65,0.00,OVC,SCT,0.00,169.0,WeatherDisplay:10.37,2013-08-26 22:20:00,
2013-08-26 18:25:00,86.4,73.2,29.93,WNW,288,0.0,3.5,65,0.00,OVC,SCT,0.00,79.0,WeatherDisplay:10.37,2013-08-26 22:25:00,
2013-08-26 18:30:00,86.0,72.4,29.94,NW,323,2.0,3.5,64,0.00,OVC,SCT,0.00,67.0,WeatherDisplay:10.37,2013-08-26 22:30:00,
2013-08-26 18:35:00,85.5,72.8,29.93,WNW,301,0.1,1.2,66,0.00,OVC,SCT,0.00,149.0,WeatherDisplay:10.37,2013-08-26 22:35:00,
2013-08-26 18:40:00,85.4,72.7,29.93,NW,313,0.6,2.3,66,0.00,OVC,SCT,0.00,86.0,WeatherDisplay:10.37,2013-08-26 22:40:00,
2013-08-26 18:45:00,85.3,72.6,29.93,West,263,0.0,1.2,66,0.00,OVC,SCT,0.00,100.0,WeatherDisplay:10.37,2013-08-26 22:45:00,
2013-08-26 18:50:00,85.1,72.5,29.93,WNW,284,0.7,3.5,66,0.00,OVC,SCT,0.00,83.0,WeatherDisplay:10.37,2013-08-26 22:50:00,
2013-08-26 18:55:00,84.8,72.6,29.93,WNW,299,0.1,1.2,67,0.00,OVC,SCT,0.00,47.0,WeatherDisplay:10.37,2013-08-26 22:55:00,
2013-08-26 19:00:00,84.6,72.4,29.93,WSW,244,0.1,1.2,67,0.00,OVC,SCT,0.00,44.0,WeatherDisplay:10.37,2013-08-26 23:00:00,
2013-08-26 19:05:00,84.4,72.2,29.93,West,274,0.1,2.3,67,0.00,BKN,SCT,0.00,46.0,WeatherDisplay:10.37,2013-08-26 23:05:00,
2013-08-26 19:10:00,84.2,72.5,29.93,West,279,0.3,1.2,68,0.00,BKN,SCT,0.00,47.0,WeatherDisplay:10.37,2013-08-26 23:10:00,
2013-08-26 19:15:00,84.0,72.7,29.93,West,277,0.3,3.5,69,0.00,BKN,SCT,0.00,47.0,WeatherDisplay:10.37,2013-08-26 23:15:00,
2013-08-26 19:20:00,83.9,72.6,29.92,West,277,0.2,1.2,69,0.00,BKN,SCT,0.00,44.0,WeatherDisplay:10.37,2013-08-26 23:20:00,
2013-08-26 19:25:00,83.8,72.5,29.92,WNW,282,0.0,0.0,69,0.00,BKN,SCT,0.00,46.0,WeatherDisplay:10.37,2013-08-26 23:25:00,
2013-08-26 19:30:00,83.7,72.4,29.92,WNW,282,0.0,0.0,69,0.00,BKN,SCT,0.00,53.0,WeatherDisplay:10.37,2013-08-26 23:30:00,
2013-08-26 19:35:00,83.7,72.9,29.92,WNW,282,0.0,0.0,70,0.00,BKN,SCT,0.00,69.0,WeatherDisplay:10.37,2013-08-26 23:35:00,
2013-08-26 19:40:00,83.7,72.9,29.92,WNW,282,0.0,0.0,70,0.00,BKN,SCT,0.00,54.0,WeatherDisplay:10.37,2013-08-26 23:40:00,
2013-08-26 19:45:00,83.7,72.9,29.92,WNW,282,0.0,0.0,70,0.00,BKN,SCT,0.00,44.0,WeatherDisplay:10.37,2013-08-26 23:45:00,
2013-08-26 19:50:00,83.6,72.8,29.92,WNW,282,0.0,0.0,70,0.00,BKN,SCT,0.00,28.0,WeatherDisplay:10.37,2013-08-26 23:50:00,
2013-08-26 19:55:00,83.4,72.6,29.92,WNW,292,0.0,0.0,70,0.00,BKN,SCT,0.00,21.0,WeatherDisplay:10.37,2013-08-26 23:55:00,
2013-08-26 20:00:00,83.2,72.8,29.93,WNW,284,0.0,0.0,71,0.00,BKN,SCT,0.00,14.0,WeatherDisplay:10.37,2013-08-27 00:00:00,
2013-08-26 20:05:00,82.9,72.5,29.93,WSW,253,0.0,1.2,71,0.00,BKN,SCT,0.00,9.0,WeatherDisplay:10.37,2013-08-27 00:05:00,
2013-08-26 20:10:00,82.7,72.7,29.93,West,271,0.0,0.0,72,0.00,BKN,SCT,0.00,5.0,WeatherDisplay:10.37,2013-08-27 00:10:00,
2013-08-26 20:15:00,82.4,72.5,29.93,West,271,0.0,0.0,72,0.00,BKN,SCT,0.00,0.0,WeatherDisplay:10.37,2013-08-27 00:15:00,
2013-08-26 20:20:00,82.2,72.7,29.93,WSW,244,0.0,0.0,73,0.00,BKN,SCT,0.00,0.0,WeatherDisplay:10.37,2013-08-27 00:20:00,
2013-08-26 20:25:00,81.9,72.4,29.93,WSW,244,0.0,0.0,73,0.00,BKN,SCT,0.00,0.0,WeatherDisplay:10.37,2013-08-27 00:25:00,
2013-08-26 20:30:00,81.7,72.6,29.93,WSW,244,0.0,0.0,74,0.00,BKN,SCT,0.00,0.0,WeatherDisplay:10.37,2013-08-27 00:30:00,
2013-08-26 20:35:00,81.5,72.4,29.94,WSW,244,0.0,0.0,74,0.00,BKN,SCT,0.00,0.0,WeatherDisplay:10.37,2013-08-27 00:35:00,
2013-08-26 20:40:00,81.3,72.6,29.94,WSW,244,0.0,0.0,75,0.00,BKN,SCT,0.00,0.0,WeatherDisplay:10.37,2013-08-27 00:40:00,
2013-08-26 20:45:00,81.0,72.3,29.94,WSW,246,0.0,0.0,75,0.00,BKN,SCT,0.00,0.0,WeatherDisplay:10.37,2013-08-27 00:45:00,
2013-08-26 20:50:00,80.9,72.2,29.94,WSW,246,0.0,0.0,75,0.00,BKN,SCT,0.00,0.0,WeatherDisplay:10.37,2013-08-27 00:50:00,
2013-08-26 20:55:00,80.7,72.4,29.94,WSW,246,0.0,0.0,76,0.00,BKN,SCT,0.00,0.0,WeatherDisplay:10.37,2013-08-27 00:55:00,
2013-08-26 21:00:00,80.6,72.7,29.94,WSW,246,0.0,0.0,77,0.00,BKN,SCT,0.00,0.0,WeatherDisplay:10.37,2013-08-27 01:00:00,
2013-08-26 21:05:00,80.4,72.9,29.94,WSW,246,0.0,0.0,78,0.00,OVC,SCT,0.00,0.0,WeatherDisplay:10.37,2013-08-27 01:05:00,
2013-08-26 21:10:00,80.1,72.6,29.94,WSW,246,0.0,0.0,78,0.00,OVC,SCT,0.00,0.0,WeatherDisplay:10.37,2013-08-27 01:10:00,
2013-08-26 21:15:00,79.8,72.7,29.94,WSW,246,0.0,0.0,79,0.00,OVC,SCT,0.00,0.0,WeatherDisplay:10.37,2013-08-27 01:15:00,
2013-08-26 21:20:00,79.6,72.5,29.94,WSW,246,0.0,0.0,79,0.00,OVC,SCT,0.00,0.0,WeatherDisplay:10.37,2013-08-27 01:20:00,
2013-08-26 21:25:00,79.4,72.7,29.94,WSW,246,0.0,0.0,80,0.00,OVC,SCT,0.00,0.0,WeatherDisplay:10.37,2013-08-27 01:25:00,
2013-08-26 21:30:00,79.2,72.5,29.94,WSW,246,0.0,0.0,80,0.00,OVC,SCT,0.00,0.0,WeatherDisplay:10.37,2013-08-27 01:30:00,
2013-08-26 21:35:00,79.0,72.3,29.94,WSW,246,0.0,0.0,80,0.00,OVC,SCT,0.00,0.0,WeatherDisplay:10.37,2013-08-27 01:35:00,
2013-08-26 21:40:00,78.8,72.5,29.94,WSW,246,0.0,0.0,81,0.00,OVC,SCT,0.00,0.0,WeatherDisplay:10.37,2013-08-27 01:40:00,
2013-08-26 21:45:00,78.6,72.3,29.94,WSW,246,0.0,0.0,81,0.00,OVC,SCT,0.00,0.0,WeatherDisplay:10.37,2013-08-27 01:45:00,
2013-08-26 21:50:00,78.4,72.1,29.94,WSW,246,0.0,0.0,81,0.00,OVC,SCT,0.00,0.0,WeatherDisplay:10.37,2013-08-27 01:50:00,
2013-08-26 21:55:00,78.3,72.3,29.94,WSW,246,0.0,0.0,82,0.00,OVC,SCT,0.00,0.0,WeatherDisplay:10.37,2013-08-27 01:55:00,
2013-08-26 22:00:00,78.2,72.3,29.94,WSW,246,0.0,0.0,82,0.00,OVC,SCT,0.00,0.0,WeatherDisplay:10.37,2013-08-27 02:00:00,
2013-08-26 22:05:00,78.0,72.1,29.94,WSW,246,0.0,0.0,82,0.00,BKN,SCT,0.00,0.0,WeatherDisplay:10.37,2013-08-27 02:05:00,
2013-08-26 22:10:00,77.9,72.3,29.94,WSW,246,0.0,0.0,83,0.00,BKN,SCT,0.00,0.0,WeatherDisplay:10.37,2013-08-27 02:10:00,
2013-08-26 22:15:00,77.8,72.2,29.94,WSW,246,0.0,0.0,83,0.00,BKN,SCT,0.00,0.0,WeatherDisplay:10.37,2013-08-27 02:15:00,
2013-08-26 22:20:00,77.7,72.1,29.94,WSW,246,0.0,0.0,83,0.00,BKN,SCT,0.00,0.0,WeatherDisplay:10.37,2013-08-27 02:20:00,
2013-08-26 22:25:00,77.5,72.3,29.94,WSW,246,0.0,0.0,84,0.00,BKN,SCT,0.00,0.0,WeatherDisplay:10.37,2013-08-27 02:25:00,
2013-08-26 22:30:00,77.5,72.3,29.94,WSW,246,0.0,0.0,84,0.00,BKN,SCT,0.00,0.0,WeatherDisplay:10.37,2013-08-27 02:30:00,
2013-08-26 22:35:00,77.4,72.2,29.94,WSW,246,0.0,0.0,84,0.00,BKN,SCT,0.00,0.0,WeatherDisplay:10.37,2013-08-27 02:35:00,
2013-08-26 22:40:00,77.3,72.1,29.94,WSW,246,0.0,0.0,84,0.00,BKN,SCT,0.00,0.0,WeatherDisplay:10.37,2013-08-27 02:40:00,
2013-08-26 22:45:00,77.2,72.3,29.94,WSW,246,0.0,0.0,85,0.00,BKN,SCT,0.00,0.0,WeatherDisplay:10.37,2013-08-27 02:45:00,
2013-08-26 22:50:00,77.1,72.2,29.94,WSW,246,0.0,0.0,85,0.00,BKN,SCT,0.00,0.0,WeatherDisplay:10.37,2013-08-27 02:50:00,
2013-08-26 22:56:00,77.0,72.1,29.94,WSW,246,0.0,0.0,85,0.00,BKN,SCT,0.00,0.0,WeatherDisplay:10.37,2013-08-27 02:56:00,
2013-08-26 23:01:00,76.9,72.0,29.94,WSW,246,0.0,0.0,85,0.00,BKN,SCT,0.00,0.0,WeatherDisplay:10.37,2013-08-27 03:01:00,
2013-08-26 23:06:00,76.9,72.0,29.94,WSW,246,0.0,0.0,85,0.00,OVC,SCT,0.00,0.0,WeatherDisplay:10.37,2013-08-27 03:06:00,
2013-08-26 23:11:00,76.9,72.0,29.94,WSW,246,0.0,0.0,85,0.00,OVC,SCT,0.00,0.0,WeatherDisplay:10.37,2013-08-27 03:11:00,
2013-08-26 23:16:00,76.9,72.0,29.94,WSW,246,0.0,0.0,85,0.00,OVC,SCT,0.00,0.0,WeatherDisplay:10.37,2013-08-27 03:16:00,
2013-08-26 23:21:00,76.8,71.9,29.94,WSW,246,0.0,0.0,85,0.00,OVC,SCT,0.00,0.0,WeatherDisplay:10.37,2013-08-27 03:21:00,
2013-08-26 23:26:00,76.8,71.9,29.94,WSW,246,0.0,0.0,85,0.00,OVC,SCT,0.00,0.0,WeatherDisplay:10.37,2013-08-27 03:26:00,
2013-08-26 23:31:00,76.7,72.2,29.94,WSW,246,0.0,0.0,86,0.00,OVC,SCT,0.00,0.0,WeatherDisplay:10.37,2013-08-27 03:31:00,
2013-08-26 23:36:00,76.7,71.8,29.94,WSW,246,0.0,0.0,85,0.00,OVC,SCT,0.00,0.0,WeatherDisplay:10.37,2013-08-27 03:36:00,
2013-08-26 23:41:00,76.7,72.2,29.94,WSW,246,0.0,0.0,86,0.00,OVC,SCT,0.00,0.0,WeatherDisplay:10.37,2013-08-27 03:41:00,
2013-08-26 23:46:00,76.6,72.1,29.94,WSW,246,0.0,0.0,86,0.00,OVC,SCT,0.00,0.0,WeatherDisplay:10.37,2013-08-27 03:46:00,
2013-08-26 23:51:00,76.6,72.1,29.93,WSW,246,0.0,0.0,86,0.00,OVC,SCT,0.00,0.0,WeatherDisplay:10.37,2013-08-27 03:51:00,
2013-08-26 23:56:00,76.6,72.1,29.93,WSW,246,0.0,0.0,86,0.00,OVC,SCT,0.00,0.0,WeatherDisplay:10.37,2013-08-27 03:56:00,